RYR75G GMMX-GMFF

Flight info

Callsign RYR75G
Flight time 0h 41m
Altitude 24000
Route OBOGA UG850 FES
Aircraft B738/M-SDE2E3FGHIRWXY/LB1

Departure

Time 2026-04-17 05:44
Airport Marrakesh Menara Airport (GMMX)

Arrival

Time 2026-04-17 06:26
Airport Fes Saïss International Airport (GMFF)
Time Latitude Longitude Altitude Speed Heading
2026-04-17 05:41 31.60496 -8.03398 1547 ft 23 kts 276°
2026-04-17 05:41 31.60512 -8.03583 1547 ft 22 kts 275°
2026-04-17 05:41 31.60527 -8.03759 1547 ft 22 kts 276°
2026-04-17 05:41 31.60543 -8.03932 1537 ft 21 kts 276°
2026-04-17 05:42 31.60558 -8.04100 1537 ft 20 kts 276°
2026-04-17 05:42 31.60572 -8.04262 1539 ft 20 kts 276°
2026-04-17 05:42 31.60590 -8.04385 1541 ft 14 kts 305°
2026-04-17 05:42 31.60678 -8.04394 1541 ft 15 kts
2026-04-17 05:43 31.60751 -8.04346 1535 ft 12 kts 84°
2026-04-17 05:43 31.60751 -8.04327 1537 ft 0 kts 96°
2026-04-17 05:43 31.60750 -8.04325 1537 ft 7 kts 96°
2026-04-17 05:44 31.60718 -8.03961 1538 ft 82 kts 96°
2026-04-17 05:44 31.60636 -8.03030 1545 ft 144 kts 96°
2026-04-17 05:44 31.60535 -8.01738 2022 ft 156 kts 94°
2026-04-17 05:44 31.60395 -8.00418 2540 ft 178 kts 111°
2026-04-17 05:45 31.59748 -7.99045 2821 ft 208 kts 121°
2026-04-17 05:45 31.59037 -7.97446 3005 ft 233 kts 117°
2026-04-17 05:45 31.58328 -7.95674 3436 ft 246 kts 115°
2026-04-17 05:45 31.57616 -7.93810 3964 ft 259 kts 114°
2026-04-17 05:46 31.56873 -7.91820 4631 ft 269 kts 114°
2026-04-17 05:46 31.56365 -7.89705 5406 ft 274 kts 91°
2026-04-17 05:46 31.56777 -7.87539 6274 ft 276 kts 63°
2026-04-17 05:46 31.57976 -7.85813 7212 ft 271 kts 37°
2026-04-17 05:47 31.59643 -7.84853 8230 ft 268 kts 14°
2026-04-17 05:47 31.61537 -7.84460 8755 ft 285 kts
2026-04-17 05:47 31.63542 -7.84203 9483 ft 293 kts
2026-04-17 05:47 31.65588 -7.83955 10314 ft 298 kts
2026-04-17 05:48 31.67719 -7.83687 10680 ft 321 kts
2026-04-17 05:48 31.70040 -7.83380 10879 ft 347 kts
2026-04-17 05:48 31.72485 -7.83039 11354 ft 360 kts
2026-04-17 05:48 31.74129 -7.82804 11841 ft 363 kts
2026-04-17 05:49 31.77353 -7.82337 12947 ft 365 kts
2026-04-17 05:49 31.79879 -7.81970 13815 ft 367 kts
2026-04-17 05:49 31.82402 -7.81372 14553 ft 374 kts 18°
2026-04-17 05:49 31.84731 -7.79967 15349 ft 380 kts 33°
2026-04-17 05:50 31.86703 -7.77868 16158 ft 385 kts 45°
2026-04-17 05:50 31.88514 -7.75514 16929 ft 390 kts 46°
2026-04-17 05:50 31.90324 -7.73107 17682 ft 395 kts 46°
2026-04-17 05:50 31.92161 -7.70669 18423 ft 399 kts 46°
2026-04-17 05:51 31.94019 -7.68222 19072 ft 403 kts 46°
2026-04-17 05:51 31.95913 -7.65745 19736 ft 407 kts 46°
2026-04-17 05:51 31.97820 -7.63263 20396 ft 410 kts 46°
2026-04-17 05:51 31.99750 -7.60758 21039 ft 414 kts 46°
2026-04-17 05:52 32.01671 -7.58263 21691 ft 417 kts 46°
2026-04-17 05:52 32.03632 -7.55715 22354 ft 420 kts 46°
2026-04-17 05:52 32.05610 -7.53144 22962 ft 423 kts 46°
2026-04-17 05:52 32.07589 -7.50569 23697 ft 423 kts 47°
2026-04-17 05:53 32.09573 -7.47985 24003 ft 424 kts 47°
2026-04-17 05:53 32.11520 -7.45443 24055 ft 421 kts 47°
2026-04-17 05:53 32.13482 -7.42878 24086 ft 421 kts 47°
2026-04-17 05:53 32.15446 -7.40308 24089 ft 421 kts 47°
2026-04-17 05:54 32.17416 -7.37730 24091 ft 422 kts 47°
2026-04-17 05:54 32.19378 -7.35159 24088 ft 422 kts 47°
2026-04-17 05:54 32.21345 -7.32580 24086 ft 422 kts 47°
2026-04-17 05:54 32.23308 -7.30006 24084 ft 422 kts 47°
2026-04-17 05:55 32.24612 -7.28295 24094 ft 422 kts 47°
2026-04-17 05:55 32.26580 -7.25712 24092 ft 422 kts 47°
2026-04-17 05:55 32.28545 -7.23133 24092 ft 422 kts 47°
2026-04-17 05:55 32.31144 -7.19722 24090 ft 421 kts 47°
2026-04-17 05:56 32.32475 -7.17973 24090 ft 421 kts 47°
2026-04-17 05:56 32.34436 -7.15395 24090 ft 421 kts 47°
2026-04-17 05:56 32.36367 -7.12855 24089 ft 421 kts 47°
2026-04-17 05:56 32.38333 -7.10265 24090 ft 421 kts 47°
2026-04-17 05:57 32.40288 -7.07689 24090 ft 421 kts 47°
2026-04-17 05:57 32.42242 -7.05112 24087 ft 420 kts 47°
2026-04-17 05:57 32.44193 -7.02537 24085 ft 421 kts 47°
2026-04-17 05:57 32.46146 -6.99957 24084 ft 421 kts 47°
2026-04-17 05:58 32.48103 -6.97372 24089 ft 421 kts 47°
2026-04-17 05:58 32.50058 -6.94786 24087 ft 421 kts 47°
2026-04-17 05:58 32.52013 -6.92198 24088 ft 421 kts 47°
2026-04-17 05:59 32.55923 -6.87018 24085 ft 422 kts 47°
2026-04-17 05:59 32.57880 -6.84423 24083 ft 422 kts 47°
2026-04-17 05:59 32.59837 -6.81825 24090 ft 422 kts 47°
2026-04-17 05:59 32.61788 -6.79234 24090 ft 422 kts 47°
2026-04-17 06:00 32.63723 -6.76663 24090 ft 422 kts 47°
2026-04-17 06:00 32.65679 -6.74061 24094 ft 422 kts 48°
2026-04-17 06:00 32.67632 -6.71462 24096 ft 422 kts 48°
2026-04-17 06:00 32.69589 -6.68855 24101 ft 422 kts 48°
2026-04-17 06:01 32.71541 -6.66253 24104 ft 422 kts 48°
2026-04-17 06:01 32.73492 -6.63650 24101 ft 422 kts 48°
2026-04-17 06:01 32.75445 -6.61044 24098 ft 422 kts 48°
2026-04-17 06:01 32.77398 -6.58435 24093 ft 422 kts 48°
2026-04-17 06:02 32.79345 -6.55832 24099 ft 421 kts 48°
2026-04-17 06:02 32.81297 -6.53220 24104 ft 422 kts 48°
2026-04-17 06:02 32.83244 -6.50615 24103 ft 421 kts 48°
2026-04-17 06:02 32.85165 -6.48041 24103 ft 421 kts 48°
2026-04-17 06:03 32.87109 -6.45434 24102 ft 421 kts 48°
2026-04-17 06:03 32.89051 -6.42828 24101 ft 421 kts 48°
2026-04-17 06:03 32.90996 -6.40218 24101 ft 421 kts 48°
2026-04-17 06:03 32.92937 -6.37614 24111 ft 421 kts 48°
2026-04-17 06:04 32.94884 -6.35010 24111 ft 421 kts 48°
2026-04-17 06:04 32.96829 -6.32411 24109 ft 421 kts 48°
2026-04-17 06:04 32.98775 -6.29810 24109 ft 420 kts 48°
2026-04-17 06:04 33.00719 -6.27209 24105 ft 420 kts 48°
2026-04-17 06:05 33.02664 -6.24605 24108 ft 421 kts 48°
2026-04-17 06:05 33.04616 -6.21988 24123 ft 421 kts 48°
2026-04-17 06:05 33.06559 -6.19380 24119 ft 421 kts 48°
2026-04-17 06:05 33.08506 -6.16765 24123 ft 421 kts 48°
2026-04-17 06:06 33.10454 -6.14147 24114 ft 422 kts 48°
2026-04-17 06:06 33.12399 -6.11532 24109 ft 422 kts 48°
2026-04-17 06:06 33.14345 -6.08911 24107 ft 422 kts 48°
2026-04-17 06:06 33.16292 -6.06289 24129 ft 421 kts 49°
2026-04-17 06:07 33.18234 -6.03671 24123 ft 421 kts 49°
2026-04-17 06:07 33.20154 -6.01081 24103 ft 410 kts 49°
2026-04-17 06:07 33.22018 -5.98565 24075 ft 396 kts 49°
2026-04-17 06:07 33.23825 -5.96124 23786 ft 389 kts 49°
2026-04-17 06:08 33.25607 -5.93715 23392 ft 385 kts 49°
2026-04-17 06:08 33.27346 -5.91361 22999 ft 380 kts 49°
2026-04-17 06:08 33.29086 -5.89006 22577 ft 376 kts 49°
2026-04-17 06:08 33.30821 -5.86657 21969 ft 377 kts 49°
2026-04-17 06:09 33.32553 -5.84310 21439 ft 376 kts 49°
2026-04-17 06:09 33.34279 -5.81966 20951 ft 374 kts 49°
2026-04-17 06:09 33.35990 -5.79634 20531 ft 370 kts 49°
2026-04-17 06:09 33.37680 -5.77327 20105 ft 368 kts 49°
2026-04-17 06:10 33.39362 -5.75029 19669 ft 365 kts 49°
2026-04-17 06:10 33.41034 -5.72744 19238 ft 363 kts 49°
2026-04-17 06:10 33.42689 -5.70479 18833 ft 360 kts 49°
2026-04-17 06:10 33.44327 -5.68238 18531 ft 354 kts 49°
2026-04-17 06:11 33.45923 -5.66052 18068 ft 352 kts 49°
2026-04-17 06:11 33.47537 -5.63841 17573 ft 351 kts 49°
2026-04-17 06:11 33.49142 -5.61641 17120 ft 349 kts 49°
2026-04-17 06:11 33.50734 -5.59456 16667 ft 347 kts 49°
2026-04-17 06:12 33.52319 -5.57282 16223 ft 345 kts 49°
2026-04-17 06:12 33.53890 -5.55124 15789 ft 343 kts 49°
2026-04-17 06:12 33.55457 -5.52971 15366 ft 341 kts 49°
2026-04-17 06:12 33.57010 -5.50835 14953 ft 338 kts 49°
2026-04-17 06:13 33.58542 -5.48727 14657 ft 332 kts 49°
2026-04-17 06:13 33.60056 -5.46643 14214 ft 332 kts 49°
2026-04-17 06:13 33.61577 -5.44548 13755 ft 332 kts 49°
2026-04-17 06:13 33.63086 -5.42469 13355 ft 329 kts 49°
2026-04-17 06:14 33.64586 -5.40399 12896 ft 327 kts 49°
2026-04-17 06:14 33.66068 -5.38355 12590 ft 318 kts 49°
2026-04-17 06:14 33.67496 -5.36383 12220 ft 309 kts 49°
2026-04-17 06:14 33.68899 -5.34446 11714 ft 305 kts 49°
2026-04-17 06:15 33.70283 -5.32532 11236 ft 302 kts 49°
2026-04-17 06:15 33.71653 -5.30636 10754 ft 299 kts 49°
2026-04-17 06:15 33.72991 -5.28785 10283 ft 296 kts 48°
2026-04-17 06:15 33.74339 -5.26919 9798 ft 294 kts 48°
2026-04-17 06:16 33.75676 -5.25068 9275 ft 292 kts 48°
2026-04-17 06:16 33.77000 -5.23232 8784 ft 290 kts 47°
2026-04-17 06:16 33.78320 -5.21403 8290 ft 288 kts 48°
2026-04-17 06:16 33.79634 -5.19580 7789 ft 288 kts 48°
2026-04-17 06:17 33.80941 -5.17767 7305 ft 286 kts 48°
2026-04-17 06:17 33.82242 -5.15960 6835 ft 285 kts 49°
2026-04-17 06:17 33.83540 -5.14156 6359 ft 285 kts 48°
2026-04-17 06:17 33.84832 -5.12362 5903 ft 282 kts 48°
2026-04-17 06:18 33.86090 -5.10610 5667 ft 272 kts 48°
2026-04-17 06:18 33.87296 -5.08931 5415 ft 264 kts 48°
2026-04-17 06:18 33.88478 -5.07286 5166 ft 256 kts 48°
2026-04-17 06:18 33.89630 -5.05681 4913 ft 249 kts 48°
2026-04-17 06:19 33.90750 -5.04122 4699 ft 244 kts 49°
2026-04-17 06:19 33.91848 -5.02591 4453 ft 237 kts 49°
2026-04-17 06:19 33.92780 -5.00982 4195 ft 233 kts 69°
2026-04-17 06:19 33.93251 -4.99116 4161 ft 234 kts 75°
2026-04-17 06:20 33.93689 -4.97256 4116 ft 231 kts 75°
2026-04-17 06:20 33.94124 -4.95413 4129 ft 225 kts 75°
2026-04-17 06:20 33.94547 -4.93620 4114 ft 220 kts 75°
2026-04-17 06:20 33.94964 -4.91854 4036 ft 217 kts 75°
2026-04-17 06:21 33.95364 -4.90156 3930 ft 203 kts 76°
2026-04-17 06:21 33.95740 -4.88563 3769 ft 194 kts 77°
2026-04-17 06:21 33.96098 -4.87042 3650 ft 184 kts 77°
2026-04-17 06:21 33.96446 -4.85568 3397 ft 182 kts 76°
2026-04-17 06:22 33.96786 -4.84119 3153 ft 179 kts 76°
2026-04-17 06:22 33.96904 -4.82643 3037 ft 180 kts 109°
2026-04-17 06:22 33.96128 -4.81550 3020 ft 175 kts 158°
2026-04-17 06:22 33.94961 -4.81613 3008 ft 173 kts 208°
2026-04-17 06:23 33.94074 -4.82582 3006 ft 179 kts 232°
2026-04-17 06:23 33.93452 -4.83891 3020 ft 183 kts 245°
2026-04-17 06:23 33.92971 -4.85314 3016 ft 184 kts 248°
2026-04-17 06:23 33.92749 -4.86823 3016 ft 182 kts 263°
2026-04-17 06:24 33.92693 -4.88338 3011 ft 179 kts 268°
2026-04-17 06:24 33.92696 -4.89833 3009 ft 176 kts 268°
2026-04-17 06:24 33.92702 -4.91277 2796 ft 164 kts 269°
2026-04-17 06:24 33.92718 -4.92613 2581 ft 157 kts 269°
2026-04-17 06:25 33.92722 -4.93902 2356 ft 151 kts 269°
2026-04-17 06:25 33.92724 -4.95179 2086 ft 154 kts 269°
2026-04-17 06:25 33.92727 -4.96456 1894 ft 151 kts 268°
2026-04-17 06:25 33.92727 -4.97632 1853 ft 120 kts 270°
2026-04-17 06:26 33.92731 -4.98354 1856 ft 45 kts 270°
2026-04-17 06:26 33.92736 -4.98542 1855 ft 12 kts 280°
2026-04-17 06:26 33.92806 -4.98589 1855 ft 12 kts 355°
2026-04-17 06:26 33.92885 -4.98564 1857 ft 12 kts 42°
2026-04-17 06:27 33.92912 -4.98464 1854 ft 10 kts 90°
2026-04-17 06:27 33.92913 -4.98401 1854 ft 0 kts 90°
2026-04-17 06:27 33.92913 -4.98392 1853 ft 3 kts 90°
2026-04-17 06:27 33.92919 -4.98352 1854 ft 7 kts 50°
2026-04-17 06:28 33.92965 -4.98343 1855 ft 7 kts 358°
2026-04-17 06:28 33.92977 -4.98343 1855 ft 0 kts 360°